Weather History for Karlovy Vary, Czech Republic

Change the Weather History Date:

Friday, October 12, 2012

  Actual Average (EDQM) Record (EDQM)
Temperature  
Mean Temperature 41 °F -  
Max Temperature 50 °F 52 °F 66 °F (2001)
Min Temperature 32 °F 39 °F 28 °F (2004)
Degree Days  
Heating Degree Days 24    
Moisture  
Dew Point 38 °F    
Average Humidity 90    
Maximum Humidity 100    
Minimum Humidity 66    
Precipitation  
Precipitation 0.00 in - - ()
Sea Level Pressure  
Sea Level Pressure 29.84 in    
Wind  
Wind Speed 3 mph ()    
Max Wind Speed 10 mph    
Max Gust Speed -    
Visibility 4.1 miles    
Events Rain    
Averages and records for this station are not official NWS values.
T = Trace of Precipitation, MM = Missing Value Source: Averaged Metar Reports

Daily Weather History Graph

Daily Weather History Graph

Search for Another Location

Airport:

Trip Planner

Search our weather history database for the weather conditions in past years. The results will help you decide how hot, cold, wet, or windy it might be!

Date:

Astronomy

Oct. 12, 2012 Rise Set
Actual Time 7:26 AM CEST 6:22 PM CEST
Civil Twilight 6:53 AM CEST 6:55 PM CEST
Nautical Twilight 6:15 AM CEST 7:32 PM CEST
Astronomical Twilight 5:38 AM CEST 8:10 PM CEST
Moon 3:31 AM CEST (10/12) 4:37 PM CEST (10/12)
Length of Visible Light 12h 01m
Length of Day
10h 56m
Waning Crescent, 12% of the Moon is Illuminated
Oct 12
Waning Crescent
Oct 15
New
Oct 22
First Quarter
Oct 29
Full
Nov 7
Last Quarter

Hourly Weather History & Observations

Time (CEST) Temp. Windchill Dew Point Humidity Pressure Visibility Wind Dir Wind Speed Gust Speed Precip Events Conditions
12:00 AM 37.4 °F - 33.8 °F 87% 29.89 in - Variable 2.3 mph - N/A   Clear
1:00 AM 37.4 °F - 33.8 °F 87% 29.89 in - ENE 2.3 mph - N/A   Clear
2:00 AM 33.8 °F - 32.0 °F 93% 29.89 in - Calm Calm - N/A   Clear
3:00 AM 32.0 °F - 32.0 °F 100% 29.86 in - Variable 1.2 mph - N/A   Clear
4:00 AM 33.8 °F - 32.0 °F 93% 29.86 in - WNW 2.3 mph - N/A   Clear
5:00 AM 32.0 °F - 32.0 °F 100% 29.83 in - Calm Calm - N/A   Clear
5:02 AM 32.0 °F - 32.0 °F 100% 29.83 in - Variable 1.2 mph - N/A   Clear
6:00 AM 35.6 °F - 33.8 °F 93% 29.83 in 6.2 mi Variable 2.3 mph - N/A   Scattered Clouds
7:00 AM 35.6 °F - 33.8 °F 93% 29.83 in - Variable 2.3 mph - N/A   Clear
8:00 AM 35.6 °F - 35.6 °F 100% 29.83 in 6.2 mi Variable 1.2 mph - N/A   Partly Cloudy
8:30 AM 35.6 °F - 35.6 °F 100% 29.83 in 6.2 mi Variable 2.3 mph - N/A   Partly Cloudy
9:00 AM 37.4 °F 33.8 °F 35.6 °F 93% 29.83 in - NE 4.6 mph - N/A   Clear
9:30 AM 39.2 °F 35.0 °F 35.6 °F 87% 29.83 in - NE 5.8 mph - N/A   Clear
10:00 AM 39.2 °F - 35.6 °F 87% 29.83 in - Variable 2.3 mph - N/A   Clear
10:30 AM 42.8 °F 41.1 °F 37.4 °F 81% 29.83 in 6.2 mi ENE 3.5 mph - N/A   Partly Cloudy
11:00 AM 46.4 °F 43.5 °F 37.4 °F 71% 29.83 in 6.2 mi ESE 5.8 mph - N/A   Partly Cloudy
11:30 AM 46.4 °F 45.2 °F 37.4 °F 71% 29.83 in 6.2 mi South 3.5 mph - N/A   Scattered Clouds
12:00 PM 46.4 °F 42.4 °F 39.2 °F 76% 29.83 in 6.2 mi East 8.1 mph - N/A   Scattered Clouds
12:30 PM 50.0 °F - 39.2 °F 66% 29.83 in 6.2 mi East 8.1 mph - N/A   Scattered Clouds
1:00 PM 46.4 °F 41.9 °F 39.2 °F 76% 29.80 in 6.2 mi East 9.2 mph - N/A   Scattered Clouds
1:30 PM 46.4 °F 41.9 °F 39.2 °F 76% 29.80 in 6.2 mi East 9.2 mph - N/A Rain Light Rain
2:00 PM 44.6 °F 39.2 °F 39.2 °F 81% 29.80 in 6.2 mi East 10.4 mph - N/A Rain Light Rain
2:30 PM 42.8 °F 38.6 °F 39.2 °F 87% 29.83 in 3.1 mi ESE 6.9 mph - N/A Rain Light Rain
3:00 PM 42.8 °F 39.3 °F 41.0 °F 93% 29.83 in 2.5 mi ESE 5.8 mph - N/A Rain Light Rain
3:30 PM 42.8 °F 38.6 °F 41.0 °F 93% 29.80 in 2.2 mi ESE 6.9 mph - N/A Rain Light Rain
4:00 PM 42.8 °F 38.0 °F 41.0 °F 93% 29.80 in 1.9 mi East 8.1 mph - N/A Rain Rain
4:01 PM 42.8 °F 38.6 °F 41.0 °F 93% 29.80 in - ESE 6.9 mph - N/A Rain Light Rain
4:30 PM 42.8 °F 40.1 °F 41.0 °F 93% 29.80 in - ESE 4.6 mph - N/A Rain Light Rain
5:00 PM 42.8 °F 38.6 °F 41.0 °F 93% 29.80 in - East 6.9 mph - N/A Rain Light Rain
5:30 PM 42.8 °F 40.1 °F 41.0 °F 93% 29.83 in 1.6 mi ESE 4.6 mph - N/A Rain Light Rain
6:00 PM 42.8 °F 41.1 °F 41.0 °F 93% 29.83 in 1.7 mi ESE 3.5 mph - N/A   Mostly Cloudy
6:09 PM 42.8 °F 40.1 °F 41.0 °F 93% 29.83 in - ESE 4.6 mph - N/A Rain Light Rain
6:30 PM 42.8 °F 41.1 °F 41.0 °F 93% 29.83 in 1.7 mi East 3.5 mph - N/A Rain Light Rain
7:00 PM 42.8 °F 41.1 °F 41.0 °F 93% 29.83 in 3.1 mi East 3.5 mph - N/A   Mostly Cloudy
7:07 PM 42.8 °F 41.1 °F 41.0 °F 93% 29.83 in - ESE 3.5 mph - N/A Rain Light Rain
7:30 PM 42.8 °F 41.1 °F 42.8 °F 100% 29.83 in - East 3.5 mph - N/A Rain Light Rain
8:00 PM 42.8 °F - 42.8 °F 100% 29.86 in 2.2 mi Calm Calm - N/A Rain Rain
8:30 PM 42.8 °F 41.1 °F 41.0 °F 93% 29.86 in 1.0 mi NNW 3.5 mph - N/A Rain Light Rain
9:00 PM 42.8 °F - 42.8 °F 100% 29.86 in - Variable 2.3 mph - N/A   Mostly Cloudy
10:00 PM 44.6 °F 43.1 °F 42.8 °F 93% 29.89 in 2.5 mi WSW 3.5 mph - N/A   Mostly Cloudy
11:00 PM 46.4 °F 44.3 °F 46.4 °F 100% 29.89 in 3.7 mi WSW 4.6 mph - N/A   Scattered Clouds